Weather History for KESC - January, 2013

Change the Weather History Date:

Thursday, January 24, 2013

  Actual Average Record
Temperature  
Mean Temperature 6 °F -  
Max Temperature 12 °F 27 °F 43 °F (1967)
Min Temperature 0 °F 8 °F -14 °F (1963)
Degree Days  
Heating Degree Days 59    
Moisture  
Dew Point -4 °F    
Average Humidity 62    
Maximum Humidity 85    
Minimum Humidity 45    
Precipitation  
Precipitation 0.00 in - - ()
Sea Level Pressure  
Sea Level Pressure 30.53 in    
Wind  
Wind Speed 7 mph (NW)    
Max Wind Speed 12 mph    
Max Gust Speed 16 mph    
Visibility 10 miles    
Events      
Averages and records for this station are not official NWS values.
T = Trace of Precipitation, MM = Missing Value Source: NWS Daily Summary

Daily Weather History Graph

Daily Weather History Graph

Search for Another Location

Airport or City:

Trip Planner

Search our weather history database for the weather conditions in past years. The results will help you decide how hot, cold, wet, or windy it might be!

Date:

Astronomy

Jan. 24, 2013 Rise Set
Actual Time 8:18 AM EST 5:43 PM EST
Civil Twilight 7:45 AM EST 6:15 PM EST
Nautical Twilight 7:09 AM EST 6:52 PM EST
Astronomical Twilight 6:34 AM EST 7:27 PM EST
Moon 3:43 PM EST (1/24) 6:17 AM EST (1/24)
Length of Visible Light 10h 29m
Length of Day
9h 25m
Waxing Gibbous, 94% of the Moon is Illuminated
Jan 24
Waxing Gibbous
Jan 26
Full
Feb 3
Last Quarter
Feb 10
New
Feb 17
First Quarter

Hourly Weather History & Observations

Time (EST) Temp. Windchill Dew Point Humidity Pressure Visibility Wind Dir Wind Speed Gust Speed Precip Events Conditions
12:15 AM 6.8 °F -7.8 °F 1.4 °F 79% 30.35 in 1.5 mi NW 10.4 mph - N/A   Overcast
12:35 AM 6.8 °F -8.6 °F 1.4 °F 79% 30.36 in 3.0 mi NW 11.5 mph - N/A   Overcast
12:55 AM 6.8 °F -8.6 °F -0.4 °F 72% 30.37 in 5.0 mi WNW 11.5 mph - N/A   Mostly Cloudy
1:15 AM 5.0 °F -9.1 °F -2.2 °F 72% 30.39 in 10.0 mi NW 9.2 mph - N/A   Partly Cloudy
1:35 AM 3.2 °F -10.3 °F -0.4 °F 85% 30.40 in 10.0 mi WNW 8.1 mph - N/A   Clear
1:55 AM 3.2 °F -10.3 °F -0.4 °F 85% 30.41 in 10.0 mi WNW 8.1 mph - N/A   Clear
2:15 AM 3.2 °F -10.3 °F -2.2 °F 78% 30.42 in 10.0 mi NW 8.1 mph - N/A   Clear
2:35 AM 3.2 °F -10.3 °F -2.2 °F 78% 30.43 in 10.0 mi WNW 8.1 mph - N/A   Clear
2:55 AM 3.2 °F -10.3 °F -2.2 °F 78% 30.45 in 10.0 mi NW 8.1 mph - N/A   Clear
3:15 AM 3.2 °F -10.3 °F -2.2 °F 78% 30.46 in 10.0 mi WNW 8.1 mph - N/A   Clear
3:35 AM 3.2 °F -11.3 °F -2.2 °F 78% 30.47 in 10.0 mi WNW 9.2 mph - N/A   Partly Cloudy
3:55 AM 3.2 °F -9.1 °F -2.2 °F 78% 30.48 in 10.0 mi WNW 6.9 mph - N/A   Scattered Clouds
4:15 AM 1.4 °F -11.3 °F -2.2 °F 85% 30.49 in 10.0 mi WNW 6.9 mph - N/A   Scattered Clouds
4:35 AM 1.4 °F -12.5 °F -5.8 °F 72% 30.51 in 10.0 mi WNW 8.1 mph - N/A   Partly Cloudy
4:55 AM 1.4 °F -13.5 °F -2.2 °F 85% 30.51 in 4.0 mi WNW 9.2 mph - N/A   Scattered Clouds
5:15 AM 3.2 °F -12.2 °F -4.0 °F 72% 30.53 in 10.0 mi WNW 10.4 mph - N/A   Mostly Cloudy
5:35 AM 1.4 °F -14.5 °F -4.0 °F 78% 30.53 in 8.0 mi WNW 10.4 mph - N/A   Overcast
5:55 AM 1.4 °F -13.5 °F -5.8 °F 72% 30.54 in 9.0 mi WNW 9.2 mph - N/A   Overcast
6:15 AM 1.4 °F -12.5 °F -5.8 °F 72% 30.56 in 5.0 mi WNW 8.1 mph - N/A   Overcast
6:35 AM 1.4 °F -14.5 °F -5.8 °F 72% 30.56 in 9.0 mi NW 10.4 mph 16.1 mph N/A   Overcast
6:55 AM 1.4 °F -13.5 °F -5.8 °F 72% 30.57 in 10.0 mi NW 9.2 mph - N/A   Overcast
7:15 AM 1.4 °F -12.5 °F -7.6 °F 66% 30.58 in 10.0 mi NNW 8.1 mph - N/A   Scattered Clouds
7:35 AM 1.4 °F -12.5 °F -7.6 °F 66% 30.58 in 10.0 mi NW 8.1 mph - N/A   Clear
7:55 AM -0.4 °F -13.4 °F -7.6 °F 72% 30.59 in 10.0 mi WNW 6.9 mph - N/A   Clear
8:15 AM -0.4 °F -13.4 °F -9.4 °F 66% 30.59 in 10.0 mi NW 6.9 mph - N/A   Clear
8:35 AM -0.4 °F -13.4 °F -9.4 °F 66% 30.61 in 10.0 mi WNW 6.9 mph - N/A   Clear
8:55 AM -0.4 °F -13.4 °F -9.4 °F 66% 30.61 in 10.0 mi NW 6.9 mph - N/A   Clear
9:15 AM -0.4 °F -13.4 °F -9.4 °F 66% 30.62 in 10.0 mi NW 6.9 mph - N/A   Clear
9:35 AM 1.4 °F -13.5 °F -9.4 °F 61% 30.63 in 10.0 mi NW 9.2 mph - N/A   Clear
9:55 AM 1.4 °F -14.5 °F -9.4 °F 61% 30.64 in 10.0 mi NW 10.4 mph - N/A   Clear
10:15 AM 3.2 °F -11.3 °F -7.6 °F 61% 30.65 in 10.0 mi NW 9.2 mph - N/A   Clear
10:35 AM 3.2 °F -11.3 °F -9.4 °F 56% 30.65 in 10.0 mi NW 9.2 mph - N/A   Clear
10:55 AM 6.8 °F -7.8 °F -7.6 °F 52% 30.64 in 10.0 mi NW 10.4 mph - N/A   Clear
11:15 AM 6.8 °F -5.9 °F -7.6 °F 52% 30.64 in 10.0 mi NW 8.1 mph - N/A   Clear
11:35 AM 6.8 °F -6.9 °F -5.8 °F 56% 30.64 in 10.0 mi NW 9.2 mph - N/A   Clear
11:55 AM 8.6 °F -1.3 °F -5.8 °F 52% 30.64 in 10.0 mi North 5.8 mph - N/A   Clear
12:15 PM 8.6 °F -4.7 °F -5.8 °F 52% 30.63 in 10.0 mi NW 9.2 mph - N/A   Clear
12:35 PM 10.4 °F 0.8 °F -5.8 °F 48% 30.64 in 10.0 mi North 5.8 mph - N/A   Clear
12:55 PM 10.4 °F 0.8 °F -5.8 °F 48% 30.63 in 10.0 mi NNE 5.8 mph - N/A   Clear
1:15 PM 10.4 °F 2.2 °F -5.8 °F 48% 30.61 in 10.0 mi NNE 4.6 mph - N/A   Clear
1:35 PM 10.4 °F - -4.0 °F 52% 30.60 in 10.0 mi Calm Calm - N/A   Clear
1:55 PM 12.2 °F - -4.0 °F 48% 30.59 in 10.0 mi Calm Calm - N/A   Partly Cloudy
2:15 PM 10.4 °F - -5.8 °F 48% 30.59 in 10.0 mi Calm Calm - N/A   Partly Cloudy
2:35 PM 12.2 °F 0.7 °F -4.0 °F 48% 30.60 in 10.0 mi SSE 8.1 mph - N/A   Mostly Cloudy
2:55 PM 12.2 °F 1.7 °F -2.2 °F 53% 30.59 in 10.0 mi ESE 6.9 mph - N/A   Overcast
3:15 PM 12.2 °F -0.2 °F -2.2 °F 53% 30.59 in 10.0 mi SE 9.2 mph - N/A   Overcast
3:35 PM 12.2 °F 1.7 °F -0.4 °F 57% 30.59 in 10.0 mi ESE 6.9 mph - N/A   Overcast
3:55 PM 10.4 °F -0.4 °F -2.2 °F 57% 30.58 in 10.0 mi ESE 6.9 mph - N/A   Overcast
4:15 PM 10.4 °F 2.2 °F -2.2 °F 57% 30.58 in 10.0 mi ESE 4.6 mph - N/A   Mostly Cloudy
4:35 PM 10.4 °F 0.8 °F -2.2 °F 57% 30.58 in 10.0 mi ESE 5.8 mph - N/A   Clear
4:55 PM 10.4 °F 2.2 °F -2.2 °F 57% 30.57 in 10.0 mi ESE 4.6 mph - N/A   Clear
5:15 PM 10.4 °F - -2.2 °F 57% 30.56 in 10.0 mi Calm Calm - N/A   Clear
5:35 PM 10.4 °F - -2.2 °F 57% 30.55 in 10.0 mi Calm Calm - N/A   Clear
5:55 PM 12.2 °F - -2.2 °F 53% 30.55 in 10.0 mi Calm Calm - N/A   Clear
6:15 PM 10.4 °F 4.0 °F -4.0 °F 52% 30.54 in 10.0 mi South 3.5 mph - N/A   Clear
6:35 PM 10.4 °F - -2.2 °F 57% 30.54 in 10.0 mi Calm Calm - N/A   Clear
6:55 PM 10.4 °F - -2.2 °F 57% 30.53 in 10.0 mi Calm Calm - N/A   Clear
7:15 PM 12.2 °F - -2.2 °F 53% 30.52 in 10.0 mi Calm Calm - N/A   Clear
7:35 PM 12.2 °F - -4.0 °F 48% 30.51 in 10.0 mi Calm Calm - N/A   Clear
7:55 PM 12.2 °F - -2.2 °F 53% 30.50 in 10.0 mi Calm Calm - N/A   Clear
8:15 PM 10.4 °F 4.0 °F -2.2 °F 57% 30.49 in 10.0 mi South 3.5 mph - N/A   Clear
8:35 PM 12.2 °F 0.7 °F -4.0 °F 48% 30.49 in 10.0 mi South 8.1 mph - N/A   Clear
8:55 PM 12.2 °F 2.9 °F -2.2 °F 53% 30.48 in 10.0 mi South 5.8 mph - N/A   Scattered Clouds
9:15 PM 12.2 °F 2.9 °F -2.2 °F 53% 30.47 in 10.0 mi South 5.8 mph - N/A   Scattered Clouds
9:35 PM 12.2 °F - -2.2 °F 53% 30.47 in 10.0 mi Calm Calm - N/A   Mostly Cloudy
9:55 PM 12.2 °F 6.1 °F -5.8 °F 45% 30.46 in 10.0 mi SSW 3.5 mph - N/A   Overcast
10:15 PM 12.2 °F - -4.0 °F 48% 30.46 in 10.0 mi Calm Calm - N/A   Overcast
10:35 PM 12.2 °F - -5.8 °F 45% 30.44 in 10.0 mi Calm Calm - N/A   Overcast
10:55 PM 12.2 °F - -5.8 °F 45% 30.43 in 10.0 mi Calm Calm - N/A   Overcast
11:15 PM 10.4 °F - -4.0 °F 52% 30.42 in 10.0 mi Calm Calm - N/A   Overcast
11:35 PM 10.4 °F - -0.4 °F 62% 30.42 in 10.0 mi Calm Calm - N/A   Overcast
11:55 PM 10.4 °F - -0.4 °F 62% 30.42 in 10.0 mi Calm Calm - N/A   Overcast